Location: Luz Observatory
(34.5000°N, 117.2833°W)
Time: 14:54:35
(UTC-07:00)

Hubble Space Telescope - Visible Passes

Search period start: 26 May 2018 00:00
Search period end: 05 June 2018 00:00
Orbit: 537 x 541 km, 28.5° (Epoch: 25 May)

Date Brightness Start Highest point End Pass type
(mag) Time Alt. Az. Time Alt. Az. Time Alt. Az.
26 May 3.1 04:34:41 10° S 04:36:26 12° SSE 04:38:10 10° SE visible
27 May 2.8 04:24:26 13° S 04:26:00 15° SSE 04:28:25 10° ESE visible
28 May 2.5 04:14:31 17° S 04:15:34 18° SSE 04:18:25 10° ESE visible
29 May 2.3 04:04:35 21° S 04:05:08 21° SSE 04:08:18 10° ESE visible
30 May 2.1 03:54:39 24° SSE 03:54:43 24° SSE 03:58:06 10° ESE visible
31 May 2.0 03:44:43 27° SSE 03:44:43 27° SSE 03:47:51 10° ESE visible
01 Jun 2.1 03:34:49 27° SE 03:34:49 27° SE 03:37:34 10° ESE visible
02 Jun 2.3 03:24:59 25° SE 03:24:59 25° SE 03:27:15 10° ESE visible
02 Jun 1.6 05:00:39 10° WSW 05:04:23 33° S 05:08:07 10° ESE visible
03 Jun 2.6 03:15:13 21° SE 03:15:13 21° SE 03:16:54 10° ESE visible
03 Jun 1.7 04:50:34 11° WSW 04:54:00 30° S 04:57:39 10° SE visible
04 Jun 3.0 03:05:34 16° ESE 03:05:34 16° ESE 03:06:33 10° ESE visible
04 Jun 1.8 04:40:55 15° WSW 04:43:35 28° SSW 04:47:08 10° SE visible
